ORBCOMM-X [-] 1 21576U 91050C 21018.77192121 .00000011 00000-0 17055-4 0 9992 2 21576 98.5522 80.8677 0003666 11.1809 348.9461 14.41632131550002 ORBCOMM FM01 [-] 1 23545U 95017A 21019.18505679 .00000238 00000-0 49900-4 0 9994 2 23545 69.9696 45.2654 0007994 226.6769 133.3710 14.71757827375157 ORBCOMM FM02 [-] 1 23546U 95017B 21019.13981288 .00000380 00000-0 74366-4 0 9996 2 23546 69.9717 60.6539 0009024 212.3135 147.7458 14.70679175374841 ORBCOMM FM08 [+] 1 25112U 97084A 21019.14399626 .00000127 00000-0 86292-4 0 9993 2 25112 45.0164 119.6880 0006535 66.7822 293.3715 14.39184293209281 ORBCOMM FM10 [+] 1 25113U 97084B 21019.12940455 .00000199 00000-0 10927-3 0 9994 2 25113 45.0176 121.2508 0003746 34.6046 325.5047 14.39177207209265 ORBCOMM FM11 [+] 1 25114U 97084C 21019.14080583 .00000077 00000-0 70558-4 0 9996 2 25114 45.0160 120.5693 0004624 32.9421 327.1716 14.39114188209260 ORBCOMM FM12 [+] 1 25115U 97084D 21018.69234435 .00000059 00000-0 64781-4 0 9994 2 25115 45.0167 122.4051 0003554 34.8698 325.2384 14.39133552208989 ORBCOMM FM09 [+] 1 25116U 97084E 21018.69333595 .00000048 00000-0 61194-4 0 9995 2 25116 45.0171 122.9411 0004719 11.3952 348.7003 14.39142494209172 ORBCOMM FM05 [+] 1 25117U 97084F 21019.15649868 .00000079 00000-0 71121-4 0 9996 2 25117 45.0169 120.9851 0001295 104.2654 255.8339 14.39123141209261 ORBCOMM FM06 [+] 1 25118U 97084G 21019.14435701 .00000129 00000-0 86932-4 0 9997 2 25118 45.0165 120.6653 0001442 113.0772 317.3285 14.39170098209265 ORBCOMM FM07 [+] 1 25119U 97084H 21018.67835891 .00000092 00000-0 75166-4 0 9995 2 25119 45.0159 123.1721 0001880 47.2761 312.8246 14.39141103209177 ORBCOMM FM03 [-] 1 25158U 98007B 21019.14850994 .00000023 00000-0 59754-4 0 9997 2 25158 107.9973 83.1054 0049186 169.8566 190.3575 14.29622187193835 ORBCOMM FM04 [+] 1 25159U 98007C 21019.09396334 .00000053 00000-0 70944-4 0 9992 2 25159 107.9956 85.0459 0044766 169.3473 190.8622 14.29903841193936 ORBCOMM FM17 [-] 1 25413U 98046A 21019.07586220 .00000042 00000-0 68615-4 0 9991 2 25413 44.9950 261.9767 0001836 70.8951 289.2093 14.31002303172509 ORBCOMM FM18 [+] 1 25414U 98046B 21018.83782423 .00000096 00000-0 85434-4 0 9995 2 25414 44.9936 211.3779 0004317 135.1042 225.0154 14.33093974172972 ORBCOMM FM19 [+] 1 25415U 98046C 21018.90225697 .00000037 00000-0 64148-4 0 9993 2 25415 44.9942 211.6707 0003355 121.7345 15.3594 14.33060227172975 ORBCOMM FM20 [+] 1 25416U 98046D 21018.81793851 .00000038 00000-0 64579-4 0 9995 2 25416 44.9940 212.3310 0001088 70.0005 290.0958 14.33037042173080 ORBCOMM FM16 [-] 1 25417U 98046E 21018.96165883 -.00000019 00000-0 43872-4 0 9993 2 25417 44.9940 211.7438 0003762 151.6431 208.4621 14.33310746173181 ORBCOMM FM15 [+] 1 25418U 98046F 21019.03706167 .00000020 00000-0 58126-4 0 9998 2 25418 44.9971 213.1699 0003163 153.0795 312.0921 14.33105024173170 ORBCOMM FM14 [+] 1 25419U 98046G 21018.81498840 .00000056 00000-0 71110-4 0 9997 2 25419 44.9965 213.9459 0002336 127.0523 246.8195 14.33119659173140 ORBCOMM FM13 [+] 1 25420U 98046H 21018.98273731 .00000047 00000-0 68093-4 0 9993 2 25420 44.9973 214.7155 0004460 141.4468 218.6698 14.32944618173179 ORBCOMM FM21 [+] 1 25475U 98053A 21019.17708233 .00000052 00000-0 69794-4 0 9998 2 25475 45.0103 297.4313 0001411 332.6073 27.4699 14.33032281166410 ORBCOMM FM22 [-] 1 25476U 98053B 21019.14841493 .00000101 00000-0 87406-4 0 9997 2 25476 45.0099 297.1189 0001540 43.3488 316.7479 14.33137237166408 ORBCOMM FM23 [+] 1 25477U 98053C 21018.86260955 .00000046 00000-0 67849-4 0 9991 2 25477 45.0106 300.6275 0001127 12.6190 347.4684 14.32893684166193 ORBCOMM FM24 [-] 1 25478U 98053D 21019.15690953 .00000097 00000-0 86150-4 0 9992 2 25478 45.0104 299.8901 0001077 347.4506 12.6313 14.33027945166528 ORBCOMM FM25 [-] 1 25479U 98053E 21018.84750605 .00000029 00000-0 61283-4 0 9994 2 25479 45.0096 299.7106 0001825 118.9848 241.1182 14.33042065166495 ORBCOMM FM26 [-] 1 25480U 98053F 21019.14994099 -.00000010 00000-0 47513-4 0 9998 2 25480 45.0087 289.5976 0004110 159.5151 200.5860 14.32833309166611 ORBCOMM FM27 [+] 1 25481U 98053G 21019.15107779 .00000018 00000-0 57383-4 0 9994 2 25481 45.0078 298.3513 0002254 311.3555 48.7097 14.33008801166526 ORBCOMM FM28 [-] 1 25482U 98053H 21019.00599786 -.00000128 00000-0 45222-5 0 9995 2 25482 45.0068 242.8998 0002784 167.0065 193.0854 14.33692307167231 ORBCOMM FM30 [+] 1 25980U 99065A 21018.65948956 .00000057 00000-0 71515-4 0 9992 2 25980 45.0331 116.1404 0007125 249.3256 110.6827 14.32959921103223 ORBCOMM FM31 [+] 1 25981U 99065B 21019.13410599 .00000122 00000-0 95129-4 0 9994 2 25981 45.0245 108.6952 0004199 264.1451 95.8917 14.32974808103812 ORBCOMM FM32 [+] 1 25982U 99065C 21019.13804034 -.00000053 00000-0 32139-4 0 9992 2 25982 45.0181 114.2319 0006367 276.8781 83.1340 14.32156591103739 ORBCOMM FM33 [P] 1 25983U 99065D 21018.81229319 .00000070 00000-0 73298-4 0 9993 2 25983 45.0314 54.4280 0010832 274.1145 255.6347 14.35213023104479 ORBCOMM FM36 [+] 1 25984U 99065E 21018.71937627 -.00000068 00000-0 26264-4 0 9990 2 25984 45.0380 119.2534 0005030 188.7287 171.3473 14.32976805103267 ORBCOMM FM35 [+] 1 25985U 99065F 21018.65720490 .00000080 00000-0 79858-4 0 9992 2 25985 45.0409 120.8828 0003365 266.7235 93.3227 14.33003676103564 ORBCOMM FM34 [-] 1 25986U 99065G 21019.05456149 .00000157 00000-0 10789-3 0 9997 2 25986 45.0406 118.9306 0004909 226.6082 133.4356 14.32920973103804 ORBCOMM FM38 [-] 1 33060U 08031A 21018.67711181 -.00000052 00000-0 22899-4 0 9990 2 33060 48.4447 6.2579 0006381 356.3746 3.7119 14.73727818676846 ORBCOMM FM41 [-] 1 33061U 08031B 21018.73314918 -.00000033 00000-0 25787-4 0 9993 2 33061 48.4481 10.4988 0005631 344.6173 185.5487 14.73573079676426 ORBCOMM FM29 [-] 1 33062U 08031C 21018.72551424 -.00000040 00000-0 24805-4 0 9996 2 33062 48.4432 17.6578 0007576 344.5289 185.8012 14.73376493676309 ORBCOMM FM39 [-] 1 33063U 08031D 21019.08749144 .00000157 00000-0 55600-4 0 9990 2 33063 48.4442 29.8993 0008645 329.6790 30.3621 14.72768745676568 ORBCOMM FM37 [-] 1 33064U 08031E 21018.73137573 -.00000069 00000-0 20501-4 0 9994 2 33064 48.4436 22.9582 0006848 341.8577 188.2577 14.73004774676303 ORBCOMM FM40 [-] 1 33065U 08031F 21018.75618331 -.00000022 00000-0 27540-4 0 9992 2 33065 48.4463 18.9481 0008388 346.4983 183.5604 14.73555718676252 ORBCOMM FM109 [+] 1 40086U 14040A 21019.14851137 -.00000080 00000-0 19759-4 0 9994 2 40086 47.0054 32.5611 0001430 156.3461 203.7489 14.54845472346585 ORBCOMM FM107 [+] 1 40087U 14040B 21018.75917091 -.00000084 00000-0 18805-4 0 9998 2 40087 47.0073 35.0324 0001641 168.1486 191.9437 14.54851934346501 ORBCOMM FM106 [-] 1 40088U 14040C 21019.17252718 -.00000032 00000-0 28288-4 0 9993 2 40088 47.0634 330.2409 0018985 186.4739 173.5907 14.64452064347457 ORBCOMM FM111 [-] 1 40089U 14040D 21019.10340519 -.00000050 00000-0 22011-4 0 9992 2 40089 47.0080 1.7366 0034862 115.3909 245.0600 14.77351366351724 ORBCOMM FM104 [-] 1 40090U 14040E 21019.14385781 -.00000055 00000-0 26535-4 0 9998 2 40090 47.0071 49.4162 0016834 70.3786 289.8913 14.53459521346353 ORBCOMM FM103 [+] 1 40091U 14040F 21019.12532123 -.00000078 00000-0 20245-4 0 9998 2 40091 47.0076 33.6115 0001375 148.5160 211.5807 14.54854399346559 ORBCOMM FM114 [+] 1 41179U 15081A 21019.17333885 -.00000029 00000-0 31468-4 0 9996 2 41179 47.0040 303.1595 0002093 200.8361 159.2438 14.54845360269929 ORBCOMM FM119 [-] 1 41180U 15081B 21018.78595997 -.00000087 00000-0 18105-4 0 9995 2 41180 46.9998 214.2104 0002113 259.1883 100.8763 14.54844847271068 ORBCOMM FM105 [-] 1 41181U 15081C 21019.18163908 .00000031 00000-0 55098-4 0 9994 2 41181 47.0027 73.8335 0002464 297.2310 62.8318 14.43425464268175 ORBCOMM FM110 [+] 1 41182U 15081D 21018.80708985 -.00000030 00000-0 31241-4 0 9997 2 41182 47.0027 304.4199 0001896 339.7453 20.3356 14.54846154269868 ORBCOMM FM118 [+] 1 41183U 15081E 21018.85331508 -.00000031 00000-0 31133-4 0 9997 2 41183 47.0050 304.2866 0001602 341.8537 18.2290 14.54859872269859 ORBCOMM FM112 [+] 1 41184U 15081F 21018.83459698 -.00000202 00000-0 -83499-5 0 9991 2 41184 47.0002 213.4420 0001968 242.2632 117.8053 14.54847093271071 ORBCOMM FM113 [+] 1 41185U 15081G 21018.94887816 -.00000178 00000-0 -27137-5 0 9990 2 41185 47.0026 212.9447 0001856 255.5053 104.5625 14.54845422271095 ORBCOMM FM115 [+] 1 41186U 15081H 21019.15692181 -.00000038 00000-0 28276-4 0 9992 2 41186 47.0002 104.7620 0001735 247.2390 112.8313 14.58691447272524 ORBCOMM FM108 [+] 1 41187U 15081J 21018.97531366 .00000027 00000-0 44421-4 0 9996 2 41187 47.0050 123.6818 0002139 166.3378 193.7564 14.54844046272250 ORBCOMM FM117 [+] 1 41188U 15081K 21018.66711163 -.00000052 00000-0 26381-4 0 9992 2 41188 47.0010 124.4451 0002901 176.2562 183.8344 14.54851511272229 ORBCOMM FM116 [+] 1 41189U 15081L 21018.23905622 -.00000147 00000-0 44210-5 0 9998 2 41189 47.0002 216.1192 0002016 242.0146 118.0534 14.54845206270996